IK2ILW-6 Weather Reports


Display with metric or nautical units.
time (UTC)temp
F
wind
direction
speed
MPH
gust
MPH
rain 1hr
in
rain 24hr
in
rain mn
in
humidity
%
barometer
mb
20260505225124 38 178 4.0 10.0 0.24 3.39 0.06 96 1012.5
20260505224629 38 132 7.0 10.0 0.16 3.31 0.04 96 1012.4
20260505224134 38 130 4.0 7.0 0.04 3.19 0.01 96 1012.3
20260505223637 38 65 1.0 9.0 0.08 3.19 0.01 96 1012.4
20260505223123 38 143 5.0 8.0 0.12 3.19 0.01 96 1012.5
20260505222627 38 278 2.0 9.0 0.16 3.19 0.01 96 1012.5
20260505222132 38 79 5.0 9.0 0.20 3.19 0.01 95 1012.6
20260505221636 38 92 6.0 9.0 0.24 3.19 0.01 96 1012.7
20260505221140 38 67 3.0 4.0 0.24 3.15 0.00 96 1012.7
20260505220623 38 69 2.0 5.0 0.28 3.15 0.80 96 1012.7
20260505220133 37 46 3.0 5.0 0.28 3.15 0.80 96 1012.7
20260505215638 37 103 1.0 3.0 0.31 3.15 0.80 96 1012.9
20260505215123 37 140 1.0 7.0 0.31 3.15 0.80 96 1012.9
20260505214628 37 69 4.0 7.0 0.35 3.15 0.80 96 1013.0
20260505214131 37 109 1.0 6.0 0.35 3.15 0.80 96 1013.0
20260505213636 37 119 2.0 6.0 0.31 3.11 0.79 96 1013.0
20260505213140 37 85 3.0 10.0 0.28 3.07 0.78 96 1013.2
20260505212626 37 347 5.0 10.0 0.24 3.03 0.77 96 1013.3
20260505212131 38 60 3.0 4.0 0.20 2.99 0.76 96 1013.4
20260505211635 38 96 2.0 6.0 0.16 2.95 0.75 96 1013.4
20260505211139 38 138 4.0 7.0 0.12 2.91 0.74 97 1013.4
20260505210628 39 131 1.0 7.0 0.08 2.87 0.73 96 1013.4
20260505210133 39 131 3.0 9.0 0.08 2.87 0.73 96 1013.4
20260505205638 39 147 4.0 9.0 0.04 2.83 0.72 96 1013.4
20260505205142 39 135 2.0 7.0 0.08 2.83 0.72 97 1013.3
20260505204627 38 132 3.0 5.0 0.04 2.80 0.71 97 1013.4
20260505204132 38 89 4.0 6.0 0.08 2.80 0.71 97 1013.4
20260505203636 38 78 3.0 4.0 0.08 2.80 0.71 97 1013.4
20260505203140 38 178 2.0 6.0 0.08 2.80 0.71 97 1013.4
20260505202625 38 123 1.0 5.0 0.08 2.80 0.71 97 1013.4
20260505202130 38 44 3.0 5.0 0.08 2.80 0.71 97 1013.4
20260505201637 38 53 2.0 3.0 0.08 2.80 0.71 97 1013.4
20260505201141 38 45 1.0 3.0 0.08 2.80 0.71 97 1013.4
20260505200625 38 31 1.0 2.0 0.08 2.80 0.71 97 1013.4
20260505200129 38 13 1.0 4.0 0.08 2.80 0.71 97 1013.5
20260505195632 39 15 2.0 4.0 0.08 2.80 0.71 96 1013.5
20260505195136 39 167 1.0 3.0 0.04 2.76 0.70 96 1013.6
20260505194641 38 221 0.0 3.0 0.08 2.76 0.70 96 1013.5
20260505194126 38 221 2.0 3.0 0.08 2.72 0.69 96 1013.4
20260505193631 38 219 1.0 3.0 0.08 2.72 0.69 96 1013.4
20260505193134 38 219 1.0 3.0 0.08 2.72 0.69 96 1013.4
20260505192623 38 218 1.0 3.0 0.12 2.72 0.69 96 1013.3
20260505192130 38 219 1.0 3.0 0.12 2.72 0.69 96 1013.3
20260505191634 38 215 1.0 6.0 0.12 2.72 0.69 96 1013.2
20260505191138 39 309 4.0 6.0 0.12 2.72 0.69 96 1013.2
20260505190642 39 82 2.0 5.0 0.12 2.72 0.69 96 1013.3
20260505190127 39 155 1.0 8.0 0.12 2.72 0.69 96 1013.3
20260505185631 39 172 4.0 8.0 0.12 2.72 0.69 96 1013.2
20260505185134 39 165 3.0 7.0 0.16 2.72 0.69 96 1013.2
20260505184638 39 150 5.0 7.0 0.12 2.68 0.68 96 1013.2
20260505184142 39 123 3.0 5.0 0.08 2.64 0.67 96 1013.1
20260505183627 39 129 2.0 3.0 0.08 2.64 0.67 96 1013.1
20260505183135 39 104 2.0 5.0 0.08 2.64 0.67 96 1013.0
20260505182639 39 149 2.0 5.0 0.04 2.60 0.66 96 1013.0
20260505182123 39 157 2.0 4.0 0.04 2.60 0.66 96 1013.0
20260505181628 39 159 1.0 3.0 0.04 2.60 0.66 96 1013.0
20260505181131 39 125 2.0 4.0 0.04 2.60 0.66 96 1013.0
20260505180141 39 153 2.0 6.0 0.04 2.60 0.66 96 1013.0
20260505175627 39 134 4.0 6.0 0.04 2.60 0.66 96 1012.9
20260505175131 39 138 2.0 4.0 0.00 2.56 0.65 96 1012.8
20260505174633 39 138 2.0 6.0 0.00 2.56 0.65 96 1012.9
20260505174123 39 135 4.0 6.0 0.00 2.56 0.65 96 1012.8
20260505173628 39 89 3.0 6.0 0.04 2.56 0.65 96 1012.9
20260505173134 39 126 3.0 8.0 0.04 2.56 0.65 96 1013.0
20260505172635 39 125 5.0 8.0 0.04 2.56 0.65 96 1012.8
20260505172140 39 134 3.0 6.0 0.04 2.56 0.65 96 1012.9
20260505171626 39 141 3.0 6.0 0.04 2.56 0.65 96 1012.8
20260505171130 39 123 3.0 6.0 0.04 2.56 0.65 96 1012.8
20260505170635 39 157 1.0 5.0 0.04 2.56 0.65 96 1012.8
20260505170139 39 20 3.0 5.0 0.04 2.56 0.65 96 1012.8
20260505165624 39 92 3.0 7.0 0.04 2.56 0.65 96 1012.9
20260505165128 39 112 4.0 7.0 0.04 2.56 0.65 96 1012.9
20260505164637 39 125 3.0 5.0 0.04 2.56 0.65 96 1012.9
20260505164142 39 117 2.0 8.0 0.00 2.52 0.64 96 1013.0
20260505163626 39 135 5.0 9.0 0.00 2.52 0.64 96 1013.0
20260505163131 39 134 4.0 9.0 0.00 2.52 0.64 96 1013.0
20260505162635 39 119 5.0 9.0 0.00 2.52 0.64 96 1013.0
20260505162140 39 128 6.0 8.0 0.04 2.52 0.64 96 1013.0
20260505161624 39 130 6.0 8.0 0.04 2.52 0.64 96 1013.0
20260505161128 39 140 4.0 8.0 0.04 2.52 0.64 96 1013.0
20260505160633 39 115 5.0 9.0 0.04 2.52 0.64 96 1013.1
20260505160138 39 126 3.0 10.0 0.04 2.52 0.64 96 1013.2
20260505153131 39 135 6.0 11.0 0.16 2.52 0.64 96 1013.1
20260505152635 40 124 5.0 12.0 0.20 2.52 0.64 96 1013.1
20260505152140 39 84 3.0 12.0 0.16 2.48 0.63 96 1013.1
20260505151624 39 104 7.0 17.0 0.16 2.48 0.63 96 1013.0
20260505151130 39 92 11.0 17.0 0.16 2.48 0.63 96 1013.0
20260505150633 40 63 7.0 13.0 0.16 2.48 0.63 96 1013.0
20260505150123 39 132 8.0 14.0 0.16 2.48 0.63 96 1013.1
20260505140631 39 25 2.0 9.0 0.04 2.32 0.59 96 1013.1
20260505140136 39 111 5.0 14.0 0.04 2.32 0.59 96 1013.1
20260505130135 38 214 16.0 27.0 0.12 2.28 0.58 95 1013.0
20260505124631 38 55 15.0 26.0 0.20 2.28 0.58 95 1013.0
20260505124132 38 42 16.0 23.0 0.24 2.28 0.58 95 1013.0
20260505123636 38 96 16.0 23.0 0.24 2.24 0.57 95 1012.9
20260505123141 38 56 12.0 21.0 0.24 2.24 0.57 95 1013.0
20260505122630 38 97 15.0 21.0 0.28 2.24 0.57 94 1013.0
20260505122134 38 80 14.0 21.0 0.24 2.20 0.56 94 1013.0
20260505121639 38 346 11.0 22.0 0.24 2.20 0.56 93 1013.1
20260505121125 38 252 13.0 22.0 0.24 2.20 0.56 92 1013.0
20260505120630 38 86 13.0 25.0 0.24 2.17 0.55 93 1013.0
20260505120135 38 20 12.0 25.0 0.24 2.17 0.55 93 1012.8
20260505115639 38 61 12.0 23.0 0.20 2.13 0.54 93 1012.9
20260505115124 38 112 14.0 25.0 0.24 2.13 0.54 92 1013.0
20260505114630 38 101 15.0 27.0 0.20 2.09 0.53 92 1012.9
20260505114135 38 70 18.0 27.0 0.24 2.05 0.52 92 1012.8
20260505113625 38 93 12.0 22.0 0.20 2.01 0.51 93 1012.8
20260505113130 38 103 11.0 22.0 0.24 2.01 0.51 93 1013.0
20260505112635 38 319 9.0 20.0 0.24 1.97 0.50 93 1013.0
20260505112139 38 327 10.0 28.0 0.24 1.97 0.50 93 1012.8
20260505111623 38 47 11.0 28.0 0.28 1.97 0.50 93 1012.8
20260505111129 38 338 10.0 22.0 0.31 1.97 0.50 92 1012.7
20260505110632 38 273 9.0 20.0 0.28 1.93 0.49 92 1012.9
20260505110136 38 101 10.0 25.0 0.28 1.93 0.49 91 1013.0
20260505102135 37 43 12.0 21.0 0.35 1.73 0.44 90 1013.1
20260505101641 38 274 10.0 19.0 0.31 1.69 0.43 89 1012.9
20260505101125 38 83 10.0 27.0 0.31 1.65 0.42 90 1012.9
20260505100629 38 94 18.0 27.0 0.31 1.65 0.42 89 1012.6
20260505100133 38 65 12.0 22.0 0.31 1.65 0.42 90 1012.8
20260505095638 38 320 11.0 24.0 0.31 1.61 0.41 91 1012.7
20260505095127 37 189 13.0 31.0 0.39 1.61 0.41 90 1012.5
20260505094135 36 80 19.0 28.0 0.39 1.46 0.37 95 1012.7
20260505093638 36 43 10.0 16.0 0.39 1.42 0.36 94 1013.0
20260505093142 36 245 6.0 16.0 0.43 1.42 0.36 94 1013.0
20260505092644 36 186 7.0 16.0 0.43 1.38 0.35 94 1012.9
20260505092129 36 347 7.0 19.0 0.51 1.38 0.35 94 1013.0
20260505091632 36 128 10.0 19.0 0.55 1.38 0.35 93 1012.8
20260505091135 36 145 9.0 18.0 0.55 1.34 0.34 94 1012.6
20260505090639 36 85 9.0 17.0 0.59 1.34 0.34 93 1012.8
20260505090143 35 142 9.0 28.0 0.63 1.34 0.34 93 1012.7
20260505085632 35 167 21.0 28.0 0.59 1.30 0.33 92 1012.5
20260505085137 35 89 14.0 24.0 0.55 1.22 0.31 93 1012.8
20260505084642 35 32 15.0 25.0 0.51 1.14 0.29 93 1012.7
20260505084128 35 239 11.0 19.0 0.47 1.06 0.27 93 1012.6